NORTHERN QUEENS  -  Air Quality Alert Air Quality Alert        SOUTHERN QUEENS  -  Air Quality Alert Air Quality Alert      

Active alerts

Northern Queens
  Details for Northern Queens Air Quality Alert
Southern Queens
  Details for Southern Queens Air Quality Alert


WXM80 ListenWXM80 Stop

You find our weather info also at:

UK Metoffice

WeatherCloud

Weather Underground

Northeastern Weather Network

AWEKAS

Citizen Weather Observer Program (CWOP)

HAMweather, WeatherForYou, PWS Weather


Weather Underground History page Text

Daily Summary for May 3, 2017 Units:  English    Metric   Both
« Previous Day
Next Day »
Daily Weekly Monthly Yearly Custom
  High: Low: Average:
Temperature: 68.6 °F 49.8 °F 61.2 °F
Dew Point: 47.8 °F 39.5 °F 42.6 °F
Humidity: 69 % 37 % 51 %
Wind Speed: 11.1 mph 0.0 mph 4.2 mph
Wind Gust: 21.0 mph - -
Wind:- - West
Pressure: 30.17 in 29.72 in -
Precipitation: 0.00 in    
Historical Graphs
 
 
Tabular Data for May 3, 2017
Time Temperature Dew Point Pressure Wind Wind Speed Wind Gust Humidity Rainfall Rate (Hourly)
00:02 62.3 °F 41.8 °F 29.72 in WSW 2.7 mph 5.8 mph 47 % 0.00 in
00:07 62.3 °F 42.3 °F 29.73 in West 3.2 mph 9.2 mph 48 % 0.00 in
00:08 62.3 °F 42.3 °F 29.73 in West 3.2 mph 9.2 mph 48 % 0.00 in
00:10 62.2 °F 41.7 °F 29.73 in West 4.7 mph 8.1 mph 47 % 0.00 in
00:14 62.1 °F 41.6 °F 29.72 in West 1.9 mph 8.1 mph 47 % 0.00 in
00:15 62.1 °F 41.6 °F 29.73 in NW 2.4 mph 8.1 mph 47 % 0.00 in
00:20 62.1 °F 41.6 °F 29.73 in WSW 2.7 mph 8.1 mph 47 % 0.00 in
00:25 62.1 °F 41.6 °F 29.73 in WSW 6.6 mph 11.5 mph 47 % 0.00 in
00:30 62.1 °F 41.1 °F 29.73 in WSW 6.8 mph 16.1 mph 46 % 0.00 in
00:35 62.1 °F 41.1 °F 29.73 in WNW 3.8 mph 12.0 mph 46 % 0.00 in
00:40 62.1 °F 41.6 °F 29.73 in WNW 1.9 mph 5.8 mph 47 % 0.00 in
00:45 62.0 °F 41.5 °F 29.73 in WSW 1.8 mph 6.9 mph 47 % 0.00 in
00:50 62.0 °F 41.5 °F 29.73 in West 4.0 mph 8.1 mph 47 % 0.00 in
00:55 62.0 °F 41.5 °F 29.73 in SSW 4.7 mph 8.1 mph 47 % 0.00 in
01:00 61.9 °F 42.0 °F 29.73 in WSW 2.5 mph 5.8 mph 48 % 0.00 in
01:05 61.8 °F 41.9 °F 29.73 in West 3.6 mph 9.0 mph 48 % 0.00 in
01:10 61.8 °F 41.9 °F 29.73 in West 4.2 mph 9.2 mph 48 % 0.00 in
01:15 61.7 °F 42.3 °F 29.73 in WNW 2.6 mph 6.0 mph 49 % 0.00 in
01:20 61.6 °F 42.2 °F 29.73 in West 5.7 mph 11.5 mph 49 % 0.00 in
01:25 61.5 °F 42.2 °F 29.73 in SW 3.6 mph 7.0 mph 49 % 0.00 in
01:30 61.4 °F 42.1 °F 29.73 in West 6.5 mph 11.5 mph 49 % 0.00 in
01:35 61.3 °F 42.0 °F 29.73 in West 4.2 mph 10.4 mph 49 % 0.00 in
01:37 61.3 °F 42.0 °F 29.73 in NNW 2.7 mph 12.7 mph 49 % 0.00 in
01:40 61.3 °F 42.0 °F 29.73 in WNW 0.8 mph 6.0 mph 49 % 0.00 in
01:45 61.2 °F 41.9 °F 29.73 in West 5.8 mph 10.4 mph 49 % 0.00 in
01:50 61.2 °F 41.9 °F 29.73 in WSW 5.5 mph 9.2 mph 49 % 0.00 in
01:55 61.1 °F 41.8 °F 29.73 in WNW 5.0 mph 7.0 mph 49 % 0.00 in
02:01 61.1 °F 42.3 °F 29.73 in WNW 4.3 mph 8.0 mph 50 % 0.00 in
02:06 61.0 °F 42.7 °F 29.73 in West 3.0 mph 8.0 mph 51 % 0.00 in
02:11 61.0 °F 42.7 °F 29.73 in WSW 2.0 mph 7.0 mph 51 % 0.00 in
02:16 60.9 °F 42.6 °F 29.73 in West 2.0 mph 7.0 mph 51 % 0.00 in
02:21 60.8 °F 43.1 °F 29.73 in WSW 2.8 mph 8.1 mph 52 % 0.00 in
02:26 60.7 °F 43.5 °F 29.73 in West 5.9 mph 5.9 mph 53 % 0.00 in
02:31 60.5 °F 43.8 °F 29.73 in West 1.0 mph 7.0 mph 54 % 0.00 in
02:36 60.4 °F 43.2 °F 29.73 in West 5.0 mph 12.0 mph 53 % 0.00 in
02:41 60.3 °F 43.6 °F 29.73 in WSW 5.0 mph 13.0 mph 54 % 0.00 in
02:46 60.2 °F 44.0 °F 29.73 in WSW 4.3 mph 11.5 mph 55 % 0.00 in
02:51 60.1 °F 43.4 °F 29.72 in West 3.9 mph 9.2 mph 54 % 0.00 in
02:55 60.0 °F 42.8 °F 29.73 in WSW 3.0 mph 5.0 mph 53 % 0.00 in
02:59 60.0 °F 42.8 °F 29.73 in WSW 4.9 mph 8.1 mph 53 % 0.00 in
03:00 60.0 °F 42.8 °F 29.73 in WSW 4.0 mph 8.1 mph 53 % 0.00 in
03:05 60.0 °F 43.3 °F 29.73 in SW 1.8 mph 5.0 mph 54 % 0.00 in
03:10 59.9 °F 43.2 °F 29.73 in WSW 3.5 mph 6.9 mph 54 % 0.00 in
03:15 59.8 °F 43.1 °F 29.73 in WNW 3.9 mph 5.8 mph 54 % 0.00 in
03:20 59.8 °F 43.6 °F 29.73 in WSW 3.7 mph 5.8 mph 55 % 0.00 in
03:25 59.7 °F 43.5 °F 29.73 in WSW 1.3 mph 3.5 mph 55 % 0.00 in
03:30 59.6 °F 43.9 °F 29.73 in WSW 3.7 mph 8.0 mph 56 % 0.00 in
03:35 59.5 °F 43.8 °F 29.74 in SW 5.3 mph 11.5 mph 56 % 0.00 in
03:40 59.4 °F 43.7 °F 29.74 in West 3.3 mph 10.4 mph 56 % 0.00 in
03:45 59.4 °F 43.7 °F 29.74 in SW 5.0 mph 6.9 mph 56 % 0.00 in
03:50 59.4 °F 44.2 °F 29.74 in WSW 4.1 mph 4.1 mph 57 % 0.00 in
03:55 59.3 °F 43.6 °F 29.75 in West 3.6 mph 10.4 mph 56 % 0.00 in
04:00 59.3 °F 43.1 °F 29.75 in West 5.1 mph 9.2 mph 55 % 0.00 in
04:05 59.3 °F 43.1 °F 29.74 in SW 2.8 mph 4.6 mph 55 % 0.00 in
04:11 59.3 °F 43.1 °F 29.75 in West 3.8 mph 6.9 mph 55 % 0.00 in
04:16 59.4 °F 43.2 °F 29.75 in SW 2.2 mph 6.0 mph 55 % 0.00 in
04:21 59.5 °F 43.3 °F 29.75 in West 1.0 mph 9.0 mph 55 % 0.00 in
04:26 59.5 °F 43.3 °F 29.75 in West 2.0 mph 12.0 mph 55 % 0.00 in
04:31 59.6 °F 43.4 °F 29.75 in West 5.0 mph 12.0 mph 55 % 0.00 in
04:36 59.6 °F 42.9 °F 29.75 in West 3.0 mph 12.0 mph 54 % 0.00 in
04:41 59.6 °F 42.9 °F 29.75 in West 3.0 mph 12.0 mph 54 % 0.00 in
04:46 59.7 °F 43.0 °F 29.75 in West 6.0 mph 12.0 mph 54 % 0.00 in
04:51 59.7 °F 43.0 °F 29.75 in West 6.0 mph 13.0 mph 54 % 0.00 in
04:56 59.7 °F 43.0 °F 29.75 in SSW 5.9 mph 9.2 mph 54 % 0.00 in
05:01 59.7 °F 42.5 °F 29.75 in WNW 6.3 mph 8.1 mph 53 % 0.00 in
05:06 59.7 °F 42.0 °F 29.76 in West 7.0 mph 20.0 mph 52 % 0.00 in
05:11 59.7 °F 42.0 °F 29.76 in WSW 5.8 mph 9.0 mph 52 % 0.00 in
05:16 59.7 °F 42.0 °F 29.76 in WSW 6.7 mph 8.1 mph 52 % 0.00 in
05:21 59.6 °F 42.5 °F 29.76 in West 5.0 mph 20.0 mph 53 % 0.00 in
05:26 59.6 °F 42.4 °F 29.76 in West 5.0 mph 12.0 mph 53 % 0.00 in
05:31 59.5 °F 42.3 °F 29.77 in West 3.0 mph 8.0 mph 53 % 0.00 in
05:36 59.4 °F 42.7 °F 29.77 in West 2.0 mph 8.0 mph 54 % 0.00 in
05:41 59.3 °F 42.6 °F 29.77 in West 2.0 mph 8.0 mph 54 % 0.00 in
05:46 59.1 °F 42.5 °F 29.77 in WSW 6.0 mph 12.0 mph 54 % 0.00 in
05:51 58.9 °F 42.3 °F 29.77 in West 8.0 mph 14.0 mph 54 % 0.00 in
05:56 58.8 °F 42.2 °F 29.77 in West 6.0 mph 14.0 mph 54 % 0.00 in
06:01 58.7 °F 41.6 °F 29.77 in WNW 5.6 mph 12.7 mph 53 % 0.00 in
06:06 58.7 °F 42.1 °F 29.77 in West 6.6 mph 10.4 mph 54 % 0.00 in
06:11 58.6 °F 42.5 °F 29.77 in WSW 2.5 mph 3.5 mph 55 % 0.00 in
06:15 58.6 °F 42.5 °F 29.78 in West 1.9 mph 8.1 mph 55 % 0.00 in
06:20 58.5 °F 42.4 °F 29.78 in West 3.5 mph 11.5 mph 55 % 0.00 in
06:25 58.5 °F 42.4 °F 29.78 in West 5.9 mph 11.5 mph 55 % 0.00 in
06:30 58.5 °F 42.4 °F 29.78 in West 3.1 mph 8.1 mph 55 % 0.00 in
06:36 58.6 °F 42.9 °F 29.78 in West 5.0 mph 12.0 mph 56 % 0.00 in
06:41 58.7 °F 43.0 °F 29.79 in West 2.0 mph 6.0 mph 56 % 0.00 in
06:46 58.7 °F 43.5 °F 29.79 in West 1.0 mph 6.0 mph 57 % 0.00 in
06:51 58.9 °F 43.7 °F 29.79 in West 2.0 mph 7.0 mph 57 % 0.00 in
06:56 59.0 °F 43.8 °F 29.80 in WSW 2.7 mph 7.0 mph 57 % 0.00 in
07:01 59.2 °F 44.4 °F 29.79 in WSW 3.3 mph 7.0 mph 58 % 0.00 in
07:06 59.4 °F 45.0 °F 29.80 in WSW 1.0 mph 7.0 mph 59 % 0.00 in
07:11 59.6 °F 44.8 °F 29.80 in West 5.0 mph 9.0 mph 58 % 0.00 in
07:16 59.8 °F 44.5 °F 29.80 in WNW 3.0 mph 9.0 mph 57 % 0.00 in
07:21 60.0 °F 44.3 °F 29.80 in West 2.0 mph 8.0 mph 56 % 0.00 in
07:26 60.2 °F 44.4 °F 29.80 in WSW 5.8 mph 10.0 mph 56 % 0.00 in
07:31 60.4 °F 44.2 °F 29.80 in WNW 5.0 mph 12.0 mph 55 % 0.00 in
07:36 60.5 °F 44.2 °F 29.79 in WNW 6.0 mph 14.0 mph 55 % 0.00 in
07:41 60.5 °F 44.2 °F 29.79 in WNW 5.0 mph 10.0 mph 55 % 0.00 in
07:46 60.5 °F 44.2 °F 29.79 in NW 8.0 mph 14.0 mph 55 % 0.00 in
07:51 60.5 °F 44.2 °F 29.79 in WNW 8.0 mph 17.0 mph 55 % 0.00 in
07:56 60.5 °F 44.2 °F 29.80 in NW 4.8 mph 10.4 mph 55 % 0.00 in
08:00 60.5 °F 44.7 °F 29.80 in NW 4.3 mph 4.6 mph 56 % 0.00 in
08:06 60.6 °F 44.3 °F 29.80 in West 5.0 mph 12.0 mph 55 % 0.00 in
08:11 60.7 °F 44.9 °F 29.80 in West 5.0 mph 12.0 mph 56 % 0.00 in
08:16 60.8 °F 45.0 °F 29.81 in WSW 2.0 mph 9.0 mph 56 % 0.00 in
08:21 60.9 °F 44.6 °F 29.81 in WSW 7.0 mph 13.0 mph 55 % 0.00 in
08:26 61.1 °F 45.3 °F 29.80 in West 1.0 mph 9.0 mph 56 % 0.00 in
08:31 61.2 °F 44.9 °F 29.81 in WNW 3.0 mph 9.0 mph 55 % 0.00 in
08:36 61.3 °F 44.5 °F 29.81 in WNW 4.5 mph 13.8 mph 54 % 0.00 in
08:40 61.4 °F 44.6 °F 29.81 in West 4.7 mph 9.2 mph 54 % 0.00 in
08:46 61.7 °F 45.8 °F 29.81 in West 1.0 mph 9.0 mph 56 % 0.00 in
08:51 62.0 °F 45.6 °F 29.81 in WNW 3.0 mph 3.5 mph 55 % 0.00 in
08:56 62.3 °F 45.9 °F 29.81 in West 5.0 mph 10.0 mph 55 % 0.00 in
09:01 62.6 °F 46.2 °F 29.82 in West 3.8 mph 8.1 mph 55 % 0.00 in
09:06 62.8 °F 45.4 °F 29.82 in NW 5.0 mph 10.0 mph 53 % 0.00 in
09:07 62.9 °F 45.0 °F 29.82 in WSW 7.2 mph 11.5 mph 52 % 0.00 in
09:12 63.0 °F 45.1 °F 29.82 in WNW 8.6 mph 15.0 mph 52 % 0.00 in
09:17 63.2 °F 44.2 °F 29.82 in WSW 7.9 mph 11.5 mph 50 % 0.00 in
09:22 63.3 °F 43.8 °F 29.82 in West 6.5 mph 11.5 mph 49 % 0.00 in
09:27 63.5 °F 43.4 °F 29.83 in WSW 4.3 mph 11.5 mph 48 % 0.00 in
09:32 63.7 °F 43.6 °F 29.83 in WNW 4.1 mph 11.5 mph 48 % 0.00 in
09:33 63.7 °F 43.6 °F 29.83 in West 6.5 mph 11.5 mph 48 % 0.00 in
09:38 63.9 °F 44.4 °F 29.83 in NNW 3.0 mph 6.9 mph 49 % 0.00 in
09:43 64.1 °F 44.5 °F 29.83 in WNW 8.0 mph 10.4 mph 49 % 0.00 in
09:48 64.5 °F 45.4 °F 29.83 in North 4.0 mph 8.1 mph 50 % 0.00 in
09:53 64.8 °F 44.1 °F 29.83 in West 7.2 mph 10.4 mph 47 % 0.00 in
09:58 65.0 °F 44.8 °F 29.83 in WNW 5.1 mph 9.0 mph 48 % 0.00 in
10:03 65.4 °F 47.8 °F 29.84 in North 4.2 mph 6.0 mph 53 % 0.00 in
10:08 65.7 °F 46.5 °F 29.83 in WNW 3.0 mph 7.0 mph 50 % 0.00 in
10:13 66.1 °F 46.9 °F 29.83 in NNE 3.3 mph 8.0 mph 50 % 0.00 in
10:18 66.3 °F 46.6 °F 29.83 in WSW 1.0 mph 3.5 mph 49 % 0.00 in
10:23 66.6 °F 45.7 °F 29.83 in NW 4.5 mph 9.2 mph 47 % 0.00 in
10:28 66.3 °F 44.3 °F 29.84 in WNW 2.7 mph 4.6 mph 45 % 0.00 in
10:33 66.0 °F 44.6 °F 29.84 in WNW 3.7 mph 9.2 mph 46 % 0.00 in
10:38 65.4 °F 42.9 °F 29.84 in WNW 7.6 mph 15.0 mph 44 % 0.00 in
10:43 65.3 °F 42.8 °F 29.84 in West 6.1 mph 13.8 mph 44 % 0.00 in
10:48 65.4 °F 42.9 °F 29.84 in WNW 6.4 mph 12.7 mph 44 % 0.00 in
10:53 65.6 °F 45.4 °F 29.84 in NW 3.6 mph 7.0 mph 48 % 0.00 in
10:58 66.0 °F 44.6 °F 29.84 in WNW 3.8 mph 6.9 mph 46 % 0.00 in
11:03 66.1 °F 43.5 °F 29.84 in West 4.2 mph 7.0 mph 44 % 0.00 in
11:08 66.2 °F 43.6 °F 29.84 in NW 7.3 mph 11.5 mph 44 % 0.00 in
11:13 66.3 °F 42.5 °F 29.84 in WNW 7.8 mph 15.0 mph 42 % 0.00 in
11:18 66.2 °F 41.8 °F 29.84 in WNW 6.7 mph 11.5 mph 41 % 0.00 in
11:23 66.3 °F 42.5 °F 29.84 in NW 8.0 mph 15.0 mph 42 % 0.00 in
11:28 66.4 °F 42.0 °F 29.84 in West 5.8 mph 9.0 mph 41 % 0.00 in
11:33 66.4 °F 42.0 °F 29.84 in West 6.7 mph 10.0 mph 41 % 0.00 in
11:38 66.5 °F 42.1 °F 29.84 in WNW 5.2 mph 10.4 mph 41 % 0.00 in
11:43 66.4 °F 42.6 °F 29.84 in WSW 4.0 mph 8.1 mph 42 % 0.00 in
11:48 66.1 °F 41.7 °F 29.84 in NW 6.6 mph 12.0 mph 41 % 0.00 in
11:53 65.7 °F 41.3 °F 29.84 in WNW 4.6 mph 10.4 mph 41 % 0.00 in
11:58 65.2 °F 40.9 °F 29.84 in WNW 5.1 mph 11.5 mph 41 % 0.00 in
12:03 65.0 °F 41.3 °F 29.84 in NW 6.1 mph 10.4 mph 42 % 0.00 in
12:09 65.7 °F 42.6 °F 29.84 in WNW 5.6 mph 11.5 mph 43 % 0.00 in
12:14 66.2 °F 41.8 °F 29.84 in SW 4.0 mph 8.1 mph 41 % 0.00 in
12:19 66.5 °F 42.7 °F 29.84 in SW 6.6 mph 13.0 mph 42 % 0.00 in
12:24 66.9 °F 43.0 °F 29.84 in WSW 7.5 mph 13.8 mph 42 % 0.00 in
12:29 67.4 °F 43.5 °F 29.84 in WNW 5.6 mph 11.0 mph 42 % 0.00 in
12:34 67.3 °F 40.8 °F 29.85 in WSW 4.9 mph 12.7 mph 38 % 0.00 in
12:39 66.9 °F 41.1 °F 29.85 in West 5.9 mph 7.0 mph 39 % 0.00 in
12:44 66.6 °F 40.9 °F 29.85 in West 5.6 mph 11.5 mph 39 % 0.00 in
12:49 66.3 °F 41.2 °F 29.86 in NW 5.3 mph 11.5 mph 40 % 0.00 in
12:54 66.2 °F 43.0 °F 29.86 in NW 6.1 mph 10.4 mph 43 % 0.00 in
12:59 66.2 °F 44.2 °F 29.87 in West 6.4 mph 11.5 mph 45 % 0.00 in
13:04 66.1 °F 42.9 °F 29.86 in West 5.8 mph 12.0 mph 43 % 0.00 in
13:09 65.9 °F 42.1 °F 29.87 in WSW 8.0 mph 12.0 mph 42 % 0.00 in
13:14 65.5 °F 41.2 °F 29.87 in NW 5.6 mph 17.3 mph 41 % 0.00 in
13:20 65.3 °F 42.2 °F 29.87 in WSW 6.6 mph 10.4 mph 43 % 0.00 in
13:25 65.2 °F 40.9 °F 29.87 in NW 5.8 mph 13.8 mph 41 % 0.00 in
13:30 65.0 °F 41.3 °F 29.87 in WNW 6.9 mph 11.5 mph 42 % 0.00 in
13:35 64.9 °F 43.6 °F 29.87 in WSW 2.8 mph 11.5 mph 46 % 0.00 in
13:40 65.1 °F 42.6 °F 29.86 in West 4.7 mph 10.4 mph 44 % 0.00 in
13:45 65.6 °F 45.4 °F 29.87 in WSW 3.1 mph 10.4 mph 48 % 0.00 in
13:50 66.3 °F 41.9 °F 29.87 in WSW 6.8 mph 13.8 mph 41 % 0.00 in
13:55 66.4 °F 42.6 °F 29.88 in WNW 4.5 mph 13.8 mph 42 % 0.00 in
14:00 66.8 °F 43.0 °F 29.88 in WNW 2.8 mph 8.1 mph 42 % 0.00 in
14:05 67.4 °F 43.5 °F 29.88 in SSW 6.0 mph 10.4 mph 42 % 0.00 in
14:10 67.6 °F 43.1 °F 29.88 in WNW 5.2 mph 11.5 mph 41 % 0.00 in
14:15 67.7 °F 42.5 °F 29.88 in NW 5.8 mph 9.2 mph 40 % 0.00 in
14:20 67.8 °F 42.6 °F 29.88 in WNW 7.0 mph 11.5 mph 40 % 0.00 in
14:25 67.7 °F 41.8 °F 29.88 in West 6.0 mph 14.0 mph 39 % 0.00 in
14:30 67.9 °F 43.3 °F 29.88 in WNW 7.1 mph 11.5 mph 41 % 0.00 in
14:35 68.1 °F 42.2 °F 29.88 in NW 5.1 mph 9.2 mph 39 % 0.00 in
14:40 68.2 °F 42.9 °F 29.88 in NW 7.2 mph 12.7 mph 40 % 0.00 in
14:45 68.1 °F 42.2 °F 29.88 in WSW 7.2 mph 12.7 mph 39 % 0.00 in
14:50 68.1 °F 42.9 °F 29.89 in SW 7.2 mph 11.5 mph 40 % 0.00 in
14:55 68.1 °F 42.2 °F 29.89 in SW 9.1 mph 21.0 mph 39 % 0.00 in
15:00 67.9 °F 42.7 °F 29.88 in NW 9.2 mph 15.0 mph 40 % 0.00 in
15:05 67.9 °F 43.3 °F 29.88 in WSW 4.2 mph 10.4 mph 41 % 0.00 in
15:10 68.0 °F 44.0 °F 29.88 in WSW 2.9 mph 9.2 mph 42 % 0.00 in
15:15 68.4 °F 43.1 °F 29.89 in West 5.1 mph 10.4 mph 40 % 0.00 in
15:20 68.6 °F 43.9 °F 29.89 in WNW 5.3 mph 10.0 mph 41 % 0.00 in
15:25 68.5 °F 41.2 °F 29.89 in WNW 5.9 mph 10.4 mph 37 % 0.00 in
15:30 68.1 °F 41.5 °F 29.89 in WSW 5.3 mph 10.4 mph 38 % 0.00 in
15:36 67.9 °F 42.7 °F 29.89 in WNW 6.0 mph 12.0 mph 40 % 0.00 in
15:41 68.1 °F 42.9 °F 29.89 in NW 4.9 mph 11.5 mph 40 % 0.00 in
15:46 68.2 °F 42.3 °F 29.89 in West 7.0 mph 16.1 mph 39 % 0.00 in
15:51 68.1 °F 42.9 °F 29.89 in NW 6.4 mph 13.0 mph 40 % 0.00 in
15:52 68.1 °F 42.2 °F 29.89 in WNW 8.8 mph 12.7 mph 39 % 0.00 in
15:53 68.1 °F 42.2 °F 29.90 in WNW 8.0 mph 14.0 mph 39 % 0.00 in
15:58 67.8 °F 41.9 °F 29.89 in North 8.8 mph 11.0 mph 39 % 0.00 in
16:03 67.6 °F 41.7 °F 29.89 in WNW 7.8 mph 12.0 mph 39 % 0.00 in
16:08 67.6 °F 41.7 °F 29.90 in NW 7.4 mph 12.0 mph 39 % 0.00 in
16:13 67.6 °F 43.7 °F 29.90 in NW 4.9 mph 11.5 mph 42 % 0.00 in
16:18 67.6 °F 41.7 °F 29.90 in West 10.2 mph 16.1 mph 39 % 0.00 in
16:23 67.4 °F 43.5 °F 29.90 in NW 2.9 mph 13.8 mph 42 % 0.00 in
16:28 67.1 °F 42.6 °F 29.90 in North 4.8 mph 8.1 mph 41 % 0.00 in
16:33 66.8 °F 42.3 °F 29.90 in SSE 1.7 mph 11.0 mph 41 % 0.00 in
16:38 66.7 °F 41.6 °F 29.90 in WSW 7.4 mph 11.5 mph 40 % 0.00 in
16:43 66.5 °F 41.4 °F 29.91 in WNW 11.1 mph 17.3 mph 40 % 0.00 in
16:48 66.1 °F 41.7 °F 29.91 in West 4.3 mph 6.9 mph 41 % 0.00 in
16:53 65.8 °F 42.7 °F 29.91 in NW 1.5 mph 5.8 mph 43 % 0.00 in
16:58 65.6 °F 41.3 °F 29.91 in WNW 6.7 mph 11.5 mph 41 % 0.00 in
17:03 65.5 °F 41.8 °F 29.92 in NW 8.4 mph 12.7 mph 42 % 0.00 in
17:08 65.4 °F 44.1 °F 29.92 in NNW 3.3 mph 9.2 mph 46 % 0.00 in
17:13 65.2 °F 43.3 °F 29.92 in WNW 4.8 mph 13.8 mph 45 % 0.00 in
17:18 65.0 °F 43.1 °F 29.92 in WNW 5.3 mph 15.0 mph 45 % 0.00 in
17:23 64.8 °F 42.9 °F 29.92 in NNW 3.4 mph 5.8 mph 45 % 0.00 in
17:28 64.4 °F 43.2 °F 29.94 in West 4.2 mph 13.8 mph 46 % 0.00 in
17:33 64.1 °F 42.9 °F 29.94 in North 2.2 mph 5.8 mph 46 % 0.00 in
17:38 63.8 °F 42.6 °F 29.94 in WNW 6.6 mph 9.2 mph 46 % 0.00 in
17:43 63.4 °F 43.9 °F 29.94 in North 1.9 mph 5.8 mph 49 % 0.00 in
17:48 63.0 °F 43.0 °F 29.94 in NNW 3.2 mph 11.5 mph 48 % 0.00 in
17:53 62.7 °F 43.3 °F 29.95 in North 1.1 mph 5.0 mph 49 % 0.00 in
17:58 62.2 °F 42.8 °F 29.95 in NW 2.3 mph 11.5 mph 49 % 0.00 in
18:04 62.0 °F 42.6 °F 29.95 in WNW 6.2 mph 8.1 mph 49 % 0.00 in
18:09 61.7 °F 42.3 °F 29.95 in West 1.6 mph 12.7 mph 49 % 0.00 in
18:10 61.6 °F 41.7 °F 29.95 in NNW 3.7 mph 8.1 mph 48 % 0.00 in
18:12 61.5 °F 41.6 °F 29.95 in NNE 3.3 mph 8.1 mph 48 % 0.00 in
18:17 61.1 °F 42.8 °F 29.95 in North 1.6 mph 3.5 mph 51 % 0.00 in
18:22 60.7 °F 41.4 °F 29.95 in NW 3.7 mph 9.2 mph 49 % 0.00 in
18:27 60.6 °F 41.8 °F 29.96 in WNW 3.9 mph 6.9 mph 50 % 0.00 in
18:32 60.4 °F 42.2 °F 29.96 in North 3.0 mph 6.0 mph 51 % 0.00 in
18:37 60.2 °F 43.0 °F 29.96 in NNW 2.0 mph 3.5 mph 53 % 0.00 in
18:42 60.1 °F 43.4 °F 29.96 in North 0.7 mph 4.0 mph 54 % 0.00 in
18:47 60.0 °F 42.8 °F 29.97 in NW 5.3 mph 9.2 mph 53 % 0.00 in
18:52 59.8 °F 43.1 °F 29.97 in NW 4.0 mph 10.4 mph 54 % 0.00 in
18:57 59.8 °F 44.5 °F 29.97 in NNW 1.3 mph 3.0 mph 57 % 0.00 in
19:02 59.6 °F 43.9 °F 29.98 in WNW 3.4 mph 3.5 mph 56 % 0.00 in
19:07 59.3 °F 44.1 °F 29.97 in NW 0.4 mph 3.5 mph 57 % 0.00 in
19:13 59.0 °F 42.4 °F 29.98 in North 0.1 mph 3.5 mph 54 % 0.00 in
19:18 58.5 °F 41.9 °F 29.98 in North 2.6 mph 9.2 mph 54 % 0.00 in
19:23 58.2 °F 41.6 °F 29.98 in North 4.6 mph 6.9 mph 54 % 0.00 in
19:28 57.8 °F 41.7 °F 29.98 in NNE 3.9 mph 8.1 mph 55 % 0.00 in
19:33 57.4 °F 40.4 °F 29.98 in NNE 5.2 mph 9.2 mph 53 % 0.00 in
19:38 57.1 °F 39.6 °F 30.00 in North 4.4 mph 11.5 mph 52 % 0.00 in
19:43 56.8 °F 40.3 °F 30.00 in NNE 6.1 mph 10.4 mph 54 % 0.00 in
19:48 56.5 °F 39.6 °F 30.00 in NNE 6.7 mph 11.5 mph 53 % 0.00 in
19:53 56.4 °F 39.5 °F 29.99 in NNW 4.8 mph 6.0 mph 53 % 0.00 in
19:58 56.2 °F 39.8 °F 30.00 in NNE 8.7 mph 11.5 mph 54 % 0.00 in
20:03 56.1 °F 39.7 °F 30.00 in North 5.6 mph 6.9 mph 54 % 0.00 in
20:08 56.0 °F 40.5 °F 30.00 in NNE 5.0 mph 10.4 mph 56 % 0.00 in
20:13 55.9 °F 40.4 °F 30.01 in North 4.5 mph 10.4 mph 56 % 0.00 in
20:18 55.7 °F 41.6 °F 30.01 in North 7.1 mph 10.4 mph 59 % 0.00 in
20:23 55.4 °F 41.7 °F 30.02 in North 6.9 mph 11.5 mph 60 % 0.00 in
20:28 55.1 °F 42.3 °F 30.03 in NNE 7.7 mph 11.5 mph 62 % 0.00 in
20:33 54.8 °F 42.0 °F 30.04 in NNE 7.3 mph 11.5 mph 62 % 0.00 in
20:38 54.6 °F 41.8 °F 30.05 in NNE 6.0 mph 9.0 mph 62 % 0.00 in
20:43 54.5 °F 41.7 °F 30.05 in North 7.8 mph 12.0 mph 62 % 0.00 in
20:48 54.2 °F 41.0 °F 30.06 in NNE 4.2 mph 8.0 mph 61 % 0.00 in
20:54 54.1 °F 40.9 °F 30.08 in North 5.3 mph 10.4 mph 61 % 0.00 in
20:59 53.9 °F 41.2 °F 30.08 in North 5.3 mph 8.1 mph 62 % 0.00 in
21:04 53.8 °F 40.7 °F 30.08 in North 4.6 mph 9.2 mph 61 % 0.00 in
21:09 53.7 °F 40.6 °F 30.09 in NNW 2.0 mph 8.1 mph 61 % 0.00 in
21:14 53.6 °F 40.5 °F 30.09 in NW 0.7 mph 4.6 mph 61 % 0.00 in
21:19 53.5 °F 40.4 °F 30.10 in NW 1.6 mph 3.5 mph 61 % 0.00 in
21:24 53.3 °F 40.2 °F 30.10 in NW 1.7 mph 3.5 mph 61 % 0.00 in
21:29 53.3 °F 40.2 °F 30.11 in NNE 1.0 mph 3.5 mph 61 % 0.00 in
21:34 53.2 °F 39.7 °F 30.11 in North 1.8 mph 6.0 mph 60 % 0.00 in
21:39 53.0 °F 40.3 °F 30.12 in North 0.4 mph 3.5 mph 62 % 0.00 in
21:44 53.0 °F 40.3 °F 30.12 in NNE 0.2 mph 1.2 mph 62 % 0.00 in
21:49 52.9 °F 40.2 °F 30.12 in NW 0.1 mph 1.2 mph 62 % 0.00 in
21:54 52.8 °F 40.1 °F 30.13 in NW 0.8 mph 3.5 mph 62 % 0.00 in
21:59 52.8 °F 40.1 °F 30.13 in NW 0.1 mph   62 % 0.00 in
22:04 52.7 °F 40.5 °F 30.13 in NW 0.3 mph 1.2 mph 63 % 0.00 in
22:09 52.6 °F 40.4 °F 30.14 in North 1.2 mph 5.0 mph 63 % 0.00 in
22:14 52.5 °F 40.3 °F 30.14 in NW 1.1 mph 4.6 mph 63 % 0.00 in
22:19 52.3 °F 40.5 °F 30.14 in NNW 0.2 mph 3.5 mph 64 % 0.00 in
22:24 52.2 °F 40.8 °F 30.15 in NNW 0.1 mph 1.2 mph 65 % 0.00 in
22:29 52.2 °F 40.8 °F 30.15 in Calm     65 % 0.00 in
22:34 52.1 °F 41.1 °F 30.15 in Calm     66 % 0.00 in
22:39 52.0 °F 41.4 °F 30.15 in Calm     67 % 0.00 in
22:44 51.9 °F 41.3 °F 30.15 in NNW 0.1 mph   67 % 0.00 in
22:47 51.8 °F 41.2 °F 30.15 in Calm     67 % 0.00 in
22:52 51.7 °F 41.1 °F 30.16 in Calm     67 % 0.00 in
22:57 51.5 °F 41.3 °F 30.16 in NNW 0.2 mph 1.2 mph 68 % 0.00 in
23:02 51.4 °F 41.2 °F 30.16 in NNW 0.1 mph 1.0 mph 68 % 0.00 in
23:07 51.2 °F 41.0 °F 30.16 in Calm   2.3 mph 68 % 0.00 in
23:12 51.0 °F 40.8 °F 30.17 in NNW 0.8 mph 2.0 mph 68 % 0.00 in
23:17 50.9 °F 40.7 °F 30.16 in Calm     68 % 0.00 in
23:22 50.8 °F 40.6 °F 30.16 in Calm     68 % 0.00 in
23:27 50.6 °F 40.4 °F 30.15 in NNW 0.6 mph 1.2 mph 68 % 0.00 in
23:32 50.4 °F 40.2 °F 30.16 in Calm   1.2 mph 68 % 0.00 in
23:37 50.3 °F 40.1 °F 30.16 in Calm   1.2 mph 68 % 0.00 in
23:43 50.1 °F 39.9 °F 30.16 in Calm     68 % 0.00 in
23:48 50.0 °F 39.8 °F 30.16 in Calm     68 % 0.00 in
23:53 49.9 °F 40.1 °F 30.16 in Calm   1.2 mph 69 % 0.00 in
23:58 49.8 °F 39.7 °F 30.16 in Calm   1.2 mph 68 % 0.00 in
Crab Meadow Weather
Compliments of Weather Underground - 3 mb

Script developed by  Jim McMurry - jmcmurry@mwt.net Adapted for the template by  Wim van der Kuil - Leuven-Template.eu

Hurricanes: A large hurricane stirs up more than a million cubic miles of the atmosphere every second. Hurricane winds can kick up 50 foot or higher waves in the open ocean.